Indianapolis, IN

11:06 PM EDT on September 20, 2019 (GMT -0400)
Indianapolis Terry

Weather History for KTYQ - August, 2019

Change the Weather History Date:

Monday, August 19, 2019

  Actual Average (KEYE) Record (KEYE)
Temperature  
Mean Temperature 74 °F -  
Max Temperature 84 °F 80 °F 91 °F (2010)
Min Temperature 64 °F 63 °F 58 °F (2012)
Cooling Degree Days 8    
Growing Degree Days 24 (Base 50)    
Moisture  
Dew Point 69 °F    
Average Humidity 95    
Maximum Humidity 100    
Minimum Humidity 69    
Precipitation  
Precipitation 0.00 in - - ()
Sea Level Pressure  
Sea Level Pressure 30.03 in    
Wind  
Wind Speed 1 mph ()    
Max Wind Speed 6 mph    
Max Gust Speed -    
Visibility 7.9 miles    
Events Thunderstorm    
Averages and records for this station are not official NWS values.
T = Trace of Precipitation, MM = Missing Value Source: Averaged Metar Reports

Daily Weather History Graph

Daily Weather History Graph

Search for Another Location

Airport or City:

Astronomy

Aug. 19, 2019 Rise Set
Actual Time 7:00 AM EDT 8:36 PM EDT
Civil Twilight 6:31 AM EDT 9:05 PM EDT
Nautical Twilight 5:56 AM EDT 9:39 PM EDT
Astronomical Twilight 5:19 AM EDT 10:16 PM EDT
Moon 10:57 PM EDT (8/19) 10:40 AM EDT (8/19)
Length of Visible Light 14h 33m
Length of Day
13h 36m
Waning Gibbous, 85% of the Moon is Illuminated
Aug 19
Waning Gibbous
Aug 23
Last Quarter
Aug 30
New
Sep 5
First Quarter
Sep 14
Full

Hourly Weather History & Observations

Time (EDT) Temp. Heat Index Dew Point Humidity Pressure Visibility Wind Dir Wind Speed Gust Speed Precip Events Conditions
12:15 AM 65.7 °F - 65.7 °F 100% 29.99 in 10.0 mi Calm Calm - N/A Thunderstorm Clear
12:35 AM 64.9 °F - 64.9 °F 100% 29.99 in 10.0 mi Calm Calm - N/A   Clear
12:55 AM 64.9 °F - 64.9 °F 100% 29.99 in 10.0 mi Calm Calm - N/A   Clear
1:15 AM 64.4 °F - 64.4 °F 100% 30.00 in 10.0 mi Calm Calm - N/A Thunderstorm Clear
1:35 AM 64.4 °F - 64.4 °F 100% 29.99 in 7.0 mi Calm Calm - N/A   Scattered Clouds
1:55 AM 65.3 °F - 65.3 °F 100% 29.99 in 7.0 mi Calm Calm - N/A   Mostly Cloudy
2:15 AM 65.7 °F - 65.7 °F 100% 29.99 in 7.0 mi Calm Calm - N/A Thunderstorm Overcast
2:35 AM 65.5 °F - 65.5 °F 100% 29.99 in 7.0 mi Calm Calm - N/A   Mostly Cloudy
2:55 AM 65.3 °F - 65.3 °F 100% 29.99 in 7.0 mi Calm Calm - N/A   Scattered Clouds
3:15 AM 65.5 °F - 65.5 °F 100% 29.99 in 10.0 mi Calm Calm - N/A   Clear
3:35 AM 65.7 °F - 65.7 °F 100% 29.99 in 7.0 mi Calm Calm - N/A   Clear
3:55 AM 65.7 °F - 65.7 °F 100% 29.98 in 7.0 mi Calm Calm - N/A   Clear
4:15 AM 65.5 °F - 65.5 °F 100% 29.98 in 5.0 mi Calm Calm - N/A   Clear
4:35 AM 65.7 °F - 65.7 °F 100% 29.98 in 4.0 mi Calm Calm - N/A   Mostly Cloudy
4:55 AM 65.8 °F - 65.8 °F 100% 29.99 in 5.0 mi Calm Calm - N/A   Mostly Cloudy
5:15 AM 65.5 °F - 65.5 °F 100% 29.99 in 5.0 mi Calm Calm - N/A   Scattered Clouds
5:30 AM 65.3 °F - 65.3 °F 100% 29.99 in 7.0 mi Calm Calm - N/A   Scattered Clouds
5:55 AM 64.8 °F - 64.8 °F 100% 29.99 in 7.0 mi Calm Calm - N/A   Clear
6:15 AM 64.4 °F - 64.4 °F 100% 30.00 in 5.0 mi Calm Calm - N/A   Scattered Clouds
6:35 AM 64.8 °F - 64.8 °F 100% 30.01 in 5.0 mi Calm Calm - N/A   Mostly Cloudy
6:55 AM 64.8 °F - 64.8 °F 100% 30.02 in 5.0 mi Calm Calm - N/A   Mostly Cloudy
7:15 AM 65.3 °F - 65.3 °F 100% 30.03 in 5.0 mi Calm Calm - N/A   Mostly Cloudy
7:35 AM 64.9 °F - 64.9 °F 100% 30.03 in 5.0 mi Calm Calm - N/A   Scattered Clouds
7:55 AM 65.8 °F - 65.8 °F 100% 30.03 in 4.0 mi South 3.5 mph - N/A   Clear
8:15 AM 67.5 °F - 67.5 °F 100% 30.03 in 10.0 mi SSW 4.6 mph - N/A   Clear
8:35 AM 69.3 °F - 69.3 °F 100% 30.04 in 10.0 mi SSW 5.8 mph - N/A   Clear
8:55 AM 70.2 °F - 70.2 °F 100% 30.04 in 10.0 mi SSW 4.6 mph - N/A   Clear
9:15 AM 71.8 °F - 71.8 °F 100% 30.05 in 10.0 mi SSW 5.8 mph - N/A   Clear
9:35 AM 72.5 °F - 72.5 °F 100% 30.05 in 10.0 mi SW 5.8 mph - N/A   Clear
9:55 AM 73.0 °F - 73.0 °F 100% 30.05 in 10.0 mi SSW 5.8 mph - N/A   Clear
10:15 AM 74.1 °F - 73.9 °F 99% 30.05 in 10.0 mi SSW 4.6 mph - N/A   Clear
10:35 AM 75.2 °F - 74.7 °F 98% 30.06 in 10.0 mi Calm Calm - N/A   Clear
10:55 AM 76.3 °F - 75.4 °F 97% 30.06 in 10.0 mi WSW 3.5 mph - N/A   Mostly Cloudy
11:15 AM 76.6 °F - 75.2 °F 95% 30.06 in 5.0 mi Calm Calm - N/A   Overcast
11:35 AM 77.5 °F - 75.4 °F 93% 30.06 in 10.0 mi NW 3.5 mph - N/A   Scattered Clouds
11:55 AM 77.2 °F - 75.4 °F 94% 30.06 in 7.0 mi Calm Calm - N/A   Scattered Clouds
12:15 PM 79.5 °F - 76.6 °F 91% 30.06 in 10.0 mi Calm Calm - N/A   Mostly Cloudy
12:35 PM 79.9 °F - 75.7 °F 87% 30.06 in 7.0 mi Calm Calm - N/A   Overcast
12:55 PM 80.4 °F 86.3 °F 76.1 °F 87% 30.07 in 7.0 mi Calm Calm - N/A   Mostly Cloudy
1:15 PM 80.4 °F 86.1 °F 75.7 °F 86% 30.06 in 5.0 mi SSW 3.5 mph - N/A   Mostly Cloudy
1:35 PM 81.3 °F 87.4 °F 74.8 °F 81% 30.06 in 10.0 mi Calm Calm - N/A   Mostly Cloudy
1:55 PM 82.2 °F 88.3 °F 73.9 °F 76% 30.06 in 10.0 mi Calm Calm - N/A   Mostly Cloudy
2:15 PM 83.3 °F 91.1 °F 75.4 °F 77% 30.06 in 10.0 mi Calm Calm - N/A   Scattered Clouds
2:35 PM 83.8 °F 90.8 °F 73.8 °F 72% 30.06 in 10.0 mi Calm Calm - N/A   Mostly Cloudy
2:55 PM 83.1 °F 90.7 °F 75.2 °F 77% 30.06 in 10.0 mi Calm Calm - N/A   Mostly Cloudy
3:15 PM 83.8 °F 89.8 °F 72.5 °F 69% 30.05 in 10.0 mi Calm Calm - N/A   Scattered Clouds
3:35 PM 84.2 °F 90.9 °F 73.6 °F 70% 30.05 in 10.0 mi Calm Calm - N/A   Scattered Clouds